Theta_e
338 339 338 338 338 338 338 338 338 335 335 336 337 337 338 342 345 346 345 346 346 346 350 349 347 350 351 350 350 350 352 352 351 350 350 351 353 353 354 354 354 356 355 355 354 355 356 359 357 359 359 359 359 358 356 359 358 361 360 364 361 358 354
337 338 340 341 340 339 339 340 342 338 336 336 337 337 338 342 345 346 346 347 346 346 350 350 349 349 352 351 351 351 350 352 354 354 353 354 356 355 356 356 355 355 355 356 355 356 356 358 358 357 358 359 360 360 360 359 357 358 359 360 358 359 358
335 339 337 339 340 340 341 342 343 343 345 348 338 337 337 342 345 346 346 347 347 347 351 351 350 350 352 352 351 352 351 351 353 353 352 353 354 356 356 357 357 356 355 356 356 356 357 358 357 357 358 357 358 361 361 360 359 360 359 359 359 357 357
332 333 337 341 341 342 343 343 344 345 349 349 350 343 341 342 346 347 347 348 348 348 350 352 351 351 351 352 352 352 352 351 353 353 353 353 354 355 355 355 357 357 356 355 356 356 357 357 357 356 365 357 357 360 360 361 361 360 361 360 359 358 357
333 334 338 338 340 341 342 341 342 343 347 349 349 350 346 345 347 348 347 349 350 348 351 353 353 353 353 353 354 354 353 352 353 353 352 353 354 354 353 353 354 355 356 356 357 356 356 356 356 355 359 356 356 358 360 360 361 360 359 359 358 358 358
333 335 338 340 342 342 342 344 345 345 346 345 345 345 346 347 348 348 348 350 351 350 352 354 354 354 353 353 354 354 354 353 353 353 352 352 352 350 352 352 353 354 355 355 357 357 356 356 355 355 356 357 356 359 359 360 360 361 359 359 358 358 359
332 334 336 337 336 340 342 341 344 345 348 346 345 347 348 349 347 348 349 350 352 351 351 353 355 354 354 355 353 354 353 354 354 353 353 352 351 350 349 351 352 353 354 355 354 356 355 355 355 355 356 357 357 357 358 358 359 359 359 359 357 358 358
324 326 329 331 337 340 342 346 349 349 350 350 347 347 346 349 349 347 347 350 349 352 352 352 354 355 355 355 354 353 354 354 355 354 353 352 351 350 348 348 350 351 352 353 354 354 356 355 355 356 357 357 356 356 357 357 357 359 359 359 356 357 361
324 325 326 329 331 333 335 337 346 346 346 347 346 346 346 348 348 348 348 351 347 346 348 350 350 349 349 350 353 353 354 354 354 354 353 352 351 351 350 348 348 349 349 352 352 353 355 355 355 356 357 356 356 355 355 356 356 357 357 358 358 357 359
322 323 324 327 330 332 333 334 339 342 341 343 344 343 343 345 346 347 348 348 348 349 350 350 349 347 346 347 347 347 351 353 354 354 354 352 352 351 350 349 348 350 348 349 351 351 353 355 355 355 356 355 354 353 353 355 355 356 357 357 357 357 357
322 322 323 324 326 328 330 331 331 334 340 342 343 343 345 346 348 348 348 349 348 348 350 350 350 348 347 349 349 350 349 348 352 353 353 353 352 351 350 349 348 348 348 347 348 350 351 353 355 354 355 355 354 353 352 353 355 355 355 357 357 357 357
320 322 322 323 324 326 327 328 329 330 333 336 340 343 344 346 347 348 347 348 349 348 348 350 351 348 345 346 349 350 347 344 342 344 350 351 347 346 346 346 345 346 349 347 346 347 350 351 352 353 353 354 353 353 353 352 354 354 354 355 357 357 357
321 321 322 322 323 324 326 327 327 328 330 334 337 339 342 344 344 346 347 348 350 349 349 349 348 345 344 345 350 347 345 345 344 345 347 350 347 346 347 347 349 346 344 347 346 344 346 348 350 352 352 353 353 353 353 352 354 354 353 353 355 356 356
324 322 322 323 323 324 324 326 327 327 328 331 334 338 341 343 345 345 346 347 348 348 349 349 346 346 345 345 348 347 345 346 348 350 349 349 349 347 348 350 352 352 351 348 345 344 343 345 348 350 351 352 353 353 353 353 353 353 353 352 352 353 355
320 323 323 323 323 323 324 325 326 327 328 330 332 334 336 339 341 344 346 347 348 349 350 352 351 350 351 351 349 349 348 348 352 352 351 351 349 348 348 349 352 351 350 350 347 346 343 344 346 348 350 350 352 352 352 353 353 354 353 352 351 351 351
319 320 321 321 322 322 323 325 325 327 328 329 331 333 335 337 339 340 343 345 346 345 348 349 349 349 350 350 351 352 350 349 351 350 349 349 348 348 348 350 351 351 350 350 350 349 345 342 343 345 348 349 350 350 351 351 352 355 349 352 353 351 351
317 317 318 317 317 320 321 322 325 325 325 327 329 331 333 335 337 340 343 343 343 344 347 347 347 347 346 346 349 350 349 349 351 352 350 348 349 350 351 352 352 349 349 349 350 348 350 347 342 342 344 348 350 350 350 351 352 346 336 339 345 354 351
314 314 315 315 316 317 318 320 322 325 325 327 328 329 331 332 335 338 339 340 340 342 344 344 343 343 343 344 344 345 346 348 348 348 348 350 352 353 352 354 352 350 348 349 350 350 350 348 347 348 347 345 346 348 350 350 348 337 333 334 335 345 353
313 314 315 316 316 316 316 317 319 321 324 326 326 328 329 331 333 335 338 339 339 341 341 341 342 342 342 343 343 344 345 345 346 347 347 349 350 351 352 351 351 351 350 351 351 351 349 348 349 348 349 349 348 347 346 348 344 335 331 331 331 332 345
312 313 314 315 316 317 318 318 318 318 320 323 327 329 330 333 333 333 335 335 336 337 337 338 339 340 340 341 342 342 344 345 347 346 347 349 351 351 351 350 349 352 353 353 352 350 350 351 348 348 347 349 349 348 351 349 338 332 329 327 327 329 333
310 312 312 312 313 314 316 318 317 318 318 319 321 325 327 328 331 332 330 331 332 333 333 334 333 335 337 338 339 341 342 343 345 345 347 348 347 347 348 348 349 352 354 354 353 351 350 351 350 350 351 350 349 348 348 346 329 327 324 323 324 325 329
310 311 311 312 313 313 315 316 317 316 317 322 320 320 321 321 323 326 330 330 329 330 330 331 331 330 331 332 335 337 340 341 342 343 344 346 347 346 346 347 347 347 350 351 351 352 353 353 352 351 350 350 350 349 346 343 325 326 323 320 318 322 334
311 311 311 312 313 313 314 316 315 316 317 317 320 321 320 321 322 323 324 325 323 323 323 324 324 326 328 330 332 334 335 338 337 338 337 341 344 344 346 346 345 346 349 347 348 350 350 350 352 351 351 351 351 349 346 344 329 324 323 320 317 326 333
313 312 312 311 312 314 314 313 314 316 315 316 319 320 321 321 321 321 320 320 320 321 321 321 321 323 324 323 325 330 333 334 334 334 336 336 339 343 343 346 346 345 349 347 347 349 350 351 351 351 351 350 349 353 349 345 335 319 316 318 320 332 335
310 310 311 312 312 312 312 315 316 316 316 315 317 319 321 322 322 322 321 321 321 322 321 321 322 322 322 322 323 325 329 332 335 334 334 334 336 340 342 342 341 343 346 348 349 350 350 350 349 351 350 353 352 353 352 350 339 315 317 317 317 329 339
309 311 312 313 313 312 313 314 313 313 313 314 315 319 319 320 322 324 321 319 320 320 321 321 321 322 322 322 324 326 328 328 330 332 334 333 334 336 339 342 341 341 343 346 348 347 348 351 350 349 350 352 352 352 351 351 351 344 323 317 315 320 342
310 312 312 312 314 319 311 311 311 312 313 313 315 317 320 320 319 318 320 318 317 318 319 319 321 322 321 323 325 325 324 324 325 326 327 329 333 337 340 340 339 339 339 340 343 344 344 346 348 346 347 348 350 351 349 351 352 349 331 321 316 315 323
312 312 315 320 321 317 311 312 312 313 313 314 315 317 318 319 319 318 316 316 316 318 318 319 321 322 322 323 322 323 323 323 325 328 327 328 330 328 330 333 336 337 337 337 340 341 342 344 346 345 344 346 347 349 350 353 353 352 339 326 315 312 312
309 309 309 310 311 317 314 311 311 312 313 314 315 315 317 319 319 317 316 314 316 319 319 322 322 322 322 323 322 323 324 324 325 325 326 327 329 327 325 326 328 331 335 335 336 338 340 341 344 346 344 343 344 347 348 350 353 347 349 334 318 312 310
309 309 310 312 313 314 315 311 312 312 312 313 315 315 315 317 318 318 316 313 317 319 322 322 321 322 322 323 321 322 322 323 324 323 323 324 325 323 322 321 322 324 327 333 334 335 335 337 340 342 344 344 345 344 348 342 346 347 343 342 326 311 309
309 309 310 311 313 315 312 310 310 311 311 312 313 314 314 314 316 317 314 314 319 319 319 320 321 322 319 317 318 319 319 320 321 321 322 322 322 322 323 322 323 322 322 324 326 330 332 334 337 338 341 341 342 344 345 346 346 348 346 338 335 322 313
308 309 309 310 310 311 310 310 311 311 311 310 312 313 315 313 313 314 313 316 317 316 317 320 320 320 318 317 317 317 318 318 319 321 322 322 321 323 323 321 323 323 321 321 322 324 326 327 335 331 335 335 336 335 332 333 335 339 345 350 349 342 322
307 307 307 308 311 312 309 309 310 311 312 310 310 312 313 312 313 313 313 315 315 315 317 318 318 318 315 313 314 315 316 317 320 319 318 318 319 319 320 320 320 320 322 320 319 320 322 322 324 323 324 324 325 326 325 324 327 334 338 341 341 339 338
306 306 307 308 310 309 307 307 307 309 311 310 309 310 311 311 311 311 311 312 313 313 314 317 316 315 311 312 313 315 317 317 322 319 316 317 318 317 317 318 321 318 318 318 318 318 319 319 320 319 320 319 319 319 320 322 323 328 330 334 338 336 333
306 306 306 306 307 308 306 308 308 309 311 308 308 310 309 309 310 312 310 311 311 312 312 315 316 316 312 312 312 312 318 318 315 315 315 314 315 315 315 316 317 316 317 318 320 322 320 318 317 321 320 319 319 318 318 320 321 324 322 332 322 327 330
305 305 306 306 308 306 308 310 307 309 309 307 308 309 309 309 309 310 311 311 311 312 312 314 314 311 311 312 312 313 315 316 314 314 316 314 313 314 314 320 314 312 315 317 323 318 309 309 315 318 316 315 317 319 318 318 321 316 307 304 303 304 304
304 304 304 306 305 305 306 307 311 309 308 307 309 308 310 310 308 308 310 310 311 312 311 310 314 312 310 314 312 314 316 315 313 314 314 314 313 313 314 314 315 309 308 311 314 308 303 302 302 303 307 316 314 317 313 312 308 303 302 301 301 301 300
304 304 305 307 304 306 308 307 307 306 307 306 308 307 307 308 308 308 310 311 311 311 310 311 312 310 310 311 312 316 316 314 315 316 315 313 313 313 314 313 313 315 309 306 306 306 304 303 302 302 303 305 308 311 313 311 306 303 302 301 300 299 298
Wind_Speed
9 10 10 10 10 11 9 7 8 10 12 12 13 15 14 13 13 12 12 13 13 11 9 9 9 7 9 8 7 6 6 6 5 6 7 6 6 7 7 6 7 6 6 6 6 7 6 5 5 5 5 4 5 5 4 3 3 2 2 1 1 3 3
9 9 6 6 8 8 6 5 3 6 7 10 12 15 12 14 13 13 13 13 14 14 12 11 10 8 8 8 7 6 6 6 5 4 5 6 5 6 7 7 7 7 6 6 6 5 5 5 4 5 5 4 5 4 4 3 3 3 3 2 2 2 2
7 5 10 11 11 12 12 13 11 6 5 1 9 12 12 13 13 14 13 13 13 13 12 12 11 11 8 7 7 7 7 6 5 5 6 7 7 8 6 7 7 7 7 5 5 6 5 5 5 5 6 5 5 4 4 3 3 3 2 2 2 2 2
3 6 8 11 13 12 10 10 8 4 0 5 2 6 9 12 12 13 13 14 14 13 13 12 12 10 9 8 7 7 8 7 6 6 6 7 8 7 7 6 6 6 6 7 7 6 6 6 6 5 5 5 4 4 3 3 3 3 3 3 2 2 2
7 11 6 5 6 5 9 12 11 8 4 3 4 2 5 8 10 11 11 13 14 15 13 13 10 10 8 8 7 6 7 7 6 5 5 5 6 6 7 7 7 7 7 7 6 6 5 6 5 6 5 4 4 3 3 3 3 3 3 3 3 2 3
10 8 4 3 4 4 2 3 7 12 11 11 8 6 3 5 4 10 12 12 11 11 10 10 10 9 9 9 7 6 4 5 5 4 4 4 4 5 6 6 7 6 6 7 6 6 6 6 5 5 5 4 4 4 4 4 4 4 3 3 3 3 4
10 9 6 6 4 2 8 8 7 7 8 9 7 5 4 2 4 5 7 11 11 12 10 9 9 8 8 8 8 6 6 6 5 5 5 4 4 4 5 5 5 6 6 5 5 5 6 6 6 5 6 6 5 5 5 4 4 4 3 4 4 3 4
10 8 8 7 4 4 5 3 3 2 4 2 4 7 8 3 5 6 5 5 1 0 2 6 6 5 4 6 7 7 7 7 5 5 4 5 5 4 5 5 5 5 5 6 6 6 7 7 6 6 6 6 6 6 6 5 5 5 4 5 4 4 3
9 8 7 7 7 6 5 6 3 9 8 3 5 6 6 8 7 5 2 4 8 10 10 10 5 5 5 3 1 4 6 6 6 5 6 7 6 6 6 6 6 5 6 7 6 6 6 7 8 7 7 7 7 6 6 6 6 6 6 6 6 6 5
8 7 6 6 6 7 6 7 3 6 8 8 5 5 7 8 9 10 9 10 10 6 4 4 1 3 4 4 5 3 1 4 6 6 7 8 7 8 7 7 6 5 6 6 6 6 5 6 8 8 8 8 8 7 7 7 7 7 7 8 7 7 7
7 6 6 8 8 8 8 8 8 5 8 5 5 4 3 6 7 7 8 10 12 11 10 8 7 4 3 3 3 5 7 8 3 6 9 8 7 7 7 7 7 6 7 6 6 6 6 5 6 8 8 9 9 8 7 8 8 8 8 7 7 8 8
6 6 7 7 8 9 9 8 7 8 7 5 6 6 5 5 8 9 9 9 9 9 7 6 6 7 7 6 6 4 2 3 4 6 5 6 5 4 3 2 2 4 7 7 7 6 6 6 6 7 8 8 8 8 8 8 8 9 9 9 8 8 7
6 6 6 7 8 7 8 10 10 9 9 6 6 6 5 7 7 7 7 8 7 7 6 5 6 6 7 7 6 7 6 6 6 6 1 6 2 3 1 2 2 2 3 6 8 7 7 7 7 6 7 8 7 8 8 7 7 7 8 8 8 8 8
9 8 6 6 8 8 9 8 8 9 9 8 8 5 8 8 8 8 7 9 7 5 5 6 7 6 4 5 4 5 6 5 5 5 4 2 4 2 0 1 0 1 1 2 6 8 8 8 9 8 7 8 8 8 7 6 6 6 7 7 7 7 7
9 9 8 8 7 7 8 8 7 7 8 9 10 10 10 8 8 8 8 7 5 3 3 3 6 6 5 6 6 6 6 6 5 4 6 6 4 1 3 1 1 1 0 2 3 7 8 9 10 9 9 8 8 8 7 7 7 6 6 7 7 6 6
10 9 7 7 7 8 7 7 8 7 7 8 8 8 9 8 7 7 7 5 5 5 5 5 5 7 7 6 5 5 6 7 6 5 4 4 4 3 3 3 2 1 1 0 3 4 6 5 5 8 9 9 9 8 7 7 6 8 13 11 8 8 7
11 9 7 7 5 7 7 6 5 7 8 8 7 7 6 6 6 5 6 6 5 5 5 6 7 6 5 5 4 3 2 3 4 4 4 3 2 2 2 2 2 2 1 1 2 3 3 2 6 6 7 8 9 9 8 8 7 13 14 15 15 10 8
9 8 8 6 6 7 8 7 6 7 9 8 7 8 7 6 5 6 5 5 7 5 4 5 6 7 4 3 3 3 2 3 4 5 4 4 4 4 3 5 4 3 2 1 1 1 2 3 1 0 2 5 6 7 7 7 9 13 14 15 16 13 8
9 8 7 5 6 5 5 5 5 4 5 6 7 7 6 4 5 6 3 4 3 5 5 5 5 5 4 4 3 3 2 2 3 4 4 3 3 2 2 1 0 0 1 2 2 2 3 2 1 0 1 2 2 2 3 5 8 10 11 13 13 14 11
7 6 7 6 6 5 4 4 4 5 4 5 7 8 6 5 6 5 5 4 4 5 5 6 6 6 5 4 3 2 3 2 3 3 4 4 3 3 3 3 2 1 1 1 0 2 3 3 3 2 1 1 2 1 1 1 1 5 11 13 13 13 10
7 7 7 7 7 6 4 4 4 5 6 6 6 5 6 5 4 4 5 5 7 5 6 6 8 7 5 3 3 2 4 4 4 4 3 5 5 5 4 4 3 3 2 2 1 0 1 2 2 3 3 3 3 2 3 3 4 6 9 11 13 12 8
6 6 6 5 6 6 5 4 4 6 4 4 7 6 5 3 2 3 4 3 4 5 5 5 5 4 3 3 2 3 4 4 4 4 5 4 4 4 4 3 2 2 2 1 2 2 2 2 2 2 3 4 3 3 3 2 6 8 8 8 7 7 6
8 6 4 5 6 6 4 4 7 8 6 5 6 7 7 6 7 6 5 4 6 7 6 5 6 5 4 4 4 3 4 5 5 5 5 5 5 5 4 3 3 3 2 2 2 2 2 3 3 3 1 2 2 3 3 3 4 2 3 4 8 6 3
8 6 5 5 7 8 7 6 8 9 8 7 7 6 7 8 7 7 6 5 6 7 5 6 6 5 5 5 5 5 4 4 5 3 4 4 5 4 4 3 3 4 3 3 3 3 3 4 5 7 8 9 8 5 1 2 1 0 1 1 1 1 2
7 6 7 8 8 8 8 7 8 8 9 8 8 6 7 8 8 7 7 6 7 6 6 6 7 6 6 5 4 5 5 5 3 3 3 2 1 1 1 2 3 3 3 3 3 3 4 5 5 4 3 4 1 7 2 1 3 7 5 6 8 6 5
9 9 9 8 7 7 7 8 10 11 10 9 6 6 7 7 7 7 7 6 5 6 5 5 5 5 5 5 5 4 5 5 6 5 5 4 3 1 1 2 2 2 2 3 2 2 2 2 2 3 4 6 4 3 2 1 0 3 10 11 11 11 6
9 9 9 8 7 7 9 9 9 9 8 6 6 7 7 7 8 7 6 7 8 7 5 4 4 5 6 6 8 8 7 5 4 4 4 3 4 4 3 2 2 3 2 2 2 1 2 4 3 2 0 3 4 5 4 3 4 4 3 6 9 9 5
10 9 8 7 9 7 8 9 9 9 9 7 8 7 6 7 8 6 7 8 8 7 7 7 5 4 5 6 7 8 8 9 8 7 5 5 4 5 5 4 3 3 3 2 2 1 1 0 3 2 4 3 5 5 4 4 6 6 6 4 8 9 8
10 9 8 8 7 7 9 8 8 8 6 6 7 7 6 7 7 5 6 7 6 6 6 6 6 6 5 6 7 7 8 8 9 8 6 7 7 6 7 6 5 5 4 3 3 2 2 2 3 4 5 5 4 3 3 4 5 6 5 7 8 10 10
8 8 8 7 7 7 7 8 6 7 6 6 6 6 6 6 5 5 6 6 5 5 5 6 6 7 8 7 7 7 8 8 8 8 7 7 7 6 7 8 8 7 7 6 4 3 3 3 3 3 4 4 1 2 2 4 3 5 7 7 8 9 10
8 7 7 7 7 6 6 7 6 6 6 5 6 5 5 4 5 4 5 5 4 4 5 5 6 6 7 7 7 8 7 8 7 7 7 7 6 6 7 7 7 7 8 8 7 5 4 5 4 3 2 1 1 2 3 4 5 5 6 9 9 9 11
7 6 6 6 6 6 5 6 6 6 5 5 4 5 4 4 4 5 4 4 4 4 4 5 6 5 6 7 7 7 7 7 7 6 7 7 6 6 6 6 6 7 7 7 6 7 7 6 6 7 5 5 5 3 4 3 5 6 6 5 6 5 6
7 7 6 6 5 5 5 5 5 4 4 4 4 4 5 5 5 4 4 4 4 4 4 4 4 4 4 6 6 7 7 7 6 6 6 6 6 6 6 5 6 7 6 6 6 6 5 5 5 5 5 5 5 6 5 5 5 5 5 6 5 3 3
7 6 5 5 5 5 5 5 4 4 4 4 3 4 4 4 4 4 4 3 3 3 3 3 2 3 3 4 5 5 5 5 10 9 6 5 5 6 6 4 4 5 5 6 6 7 7 6 6 5 5 5 5 5 5 6 6 6 6 7 6 5 5
6 7 6 6 4 4 4 3 2 3 4 3 3 4 4 4 4 4 4 4 4 4 4 3 4 4 4 4 4 5 5 6 6 6 6 6 5 3 1 3 5 5 4 2 3 4 5 6 6 5 4 3 4 5 5 5 6 6 4 7 7 7 7
7 7 5 5 4 4 4 3 3 4 4 3 4 4 4 3 4 4 4 4 4 4 3 2 3 3 3 3 3 4 4 5 6 6 6 7 7 8 7 2 1 1 4 6 7 8 5 4 3 5 5 5 5 4 5 6 7 11 14 15 14 15 14
8 5 5 4 4 3 1 2 4 4 4 3 3 3 2 2 2 3 4 4 4 3 2 3 3 3 4 4 4 5 5 5 5 5 5 6 6 7 7 9 7 3 4 5 9 11 13 13 10 9 5 4 4 6 9 11 13 14 13 13 14 14 13
8 7 5 5 4 3 5 5 5 4 3 2 2 1 0 1 2 3 4 3 4 4 4 4 4 5 5 5 5 6 5 5 5 5 5 5 5 5 6 6 8 8 6 8 10 11 13 14 15 15 15 15 11 7 7 11 12 12 13 14 14 14 14
Wind_Direction
179 188 193 194 195 201 191 187 180 181 175 173 174 175 173 173 173 174 176 180 182 179 182 180 183 182 182 183 181 178 174 179 175 169 174 182 178 173 174 180 181 185 181 185 192 196 200 192 190 199 198 193 195 206 201 191 200 185 170 141 155 182 203
182 185 180 186 194 200 186 175 168 176 178 179 177 179 176 174 172 175 178 180 183 182 181 180 181 186 184 184 182 180 180 188 180 177 170 176 181 174 173 177 179 184 184 188 187 196 188 195 184 194 199 188 191 197 186 179 188 185 183 159 138 148 167
183 139 61 31 44 37 41 33 9 20 63 327 191 181 177 176 175 177 176 179 183 183 182 183 184 183 181 181 181 188 187 185 189 181 173 175 180 175 178 174 179 181 187 185 185 190 193 189 182 188 194 188 188 193 186 177 188 185 188 163 172 167 186
107 81 102 120 125 127 133 143 169 217 208 90 357 171 174 177 176 176 176 179 180 182 184 186 183 182 180 179 187 190 191 192 194 188 182 172 178 176 170 180 181 178 180 192 193 191 193 189 184 182 188 184 187 193 186 187 190 193 196 177 188 187 208
91 67 75 130 133 129 151 168 169 169 151 123 169 172 164 166 173 173 178 180 179 182 185 185 183 179 178 180 186 191 196 196 196 193 189 178 173 174 173 183 186 187 192 192 191 190 188 186 188 180 183 177 189 186 195 191 197 201 193 181 195 190 214
75 93 116 101 85 123 177 178 160 159 183 185 195 147 141 138 153 180 178 180 184 183 178 176 181 177 177 183 185 185 193 202 198 196 193 186 171 179 185 189 187 197 192 198 188 193 188 188 190 184 182 179 187 190 194 194 204 196 187 188 200 201 213
76 78 73 87 76 125 182 194 186 181 181 184 180 107 68 103 151 183 189 183 177 175 173 178 182 177 179 176 184 180 188 194 192 199 197 196 187 181 195 198 199 199 204 195 197 189 189 193 196 191 189 182 186 191 195 196 203 204 185 193 206 212 214
57 66 66 61 75 352 339 209 157 121 32 57 110 129 165 142 61 55 18 352 355 131 133 164 159 167 166 178 183 190 190 191 187 193 198 203 201 202 195 207 210 208 205 205 210 190 190 191 194 192 189 190 187 191 195 196 198 203 185 199 208 219 216
67 63 59 61 54 19 358 0 148 124 126 125 144 144 124 91 87 73 40 55 70 44 24 3 28 75 79 76 152 202 195 189 189 184 199 201 205 213 212 208 211 209 204 211 212 203 193 187 188 187 189 192 191 188 193 196 199 199 193 199 203 210 216
71 63 56 52 50 46 14 32 39 123 127 157 131 114 127 127 121 122 111 93 90 102 143 170 251 70 101 130 131 101 24 209 187 194 195 203 205 210 219 215 213 210 214 212 209 208 207 188 184 182 186 191 195 192 191 193 199 200 200 200 200 207 213
70 63 61 55 47 39 31 29 33 78 141 129 107 106 105 115 108 119 121 133 142 160 178 182 151 124 71 79 54 20 35 11 308 212 200 206 204 211 216 219 212 209 219 211 215 216 206 206 186 183 185 192 195 199 198 196 195 199 203 205 202 204 208
62 64 53 52 44 40 30 26 27 45 61 82 114 130 140 133 126 126 130 132 140 150 174 163 131 137 132 121 111 114 98 134 90 360 302 208 186 174 149 136 202 225 216 207 210 211 213 208 204 190 193 196 197 199 204 203 199 199 202 203 205 207 210
65 60 50 49 56 47 44 34 32 29 39 46 77 108 110 123 121 118 122 138 151 164 170 140 133 144 158 151 134 147 175 169 175 164 327 313 245 164 145 115 89 131 213 227 211 203 207 212 211 211 201 204 202 203 203 204 206 205 206 205 203 206 209
77 72 61 58 57 53 53 51 41 39 32 37 35 44 95 96 99 99 113 133 151 164 159 154 148 137 128 144 161 165 168 187 185 167 143 134 308 330 126 90 85 23 336 204 227 218 205 207 207 212 209 209 208 211 206 203 207 210 211 211 206 204 211
79 67 70 69 71 65 64 61 48 45 42 47 51 46 45 49 73 101 109 116 129 122 100 114 129 123 124 137 158 173 172 186 185 158 165 168 167 204 270 208 192 258 266 318 233 217 222 210 204 205 210 211 209 210 205 200 203 200 203 208 215 212 214
88 79 69 78 85 85 76 71 70 56 51 52 56 60 69 67 49 74 91 92 81 71 56 52 66 102 114 121 144 162 170 167 174 180 185 163 168 183 216 233 191 169 310 339 337 276 225 221 224 209 207 210 213 212 208 210 210 203 198 198 200 206 212
104 100 94 84 80 85 82 75 75 82 69 58 54 64 65 80 97 69 85 91 70 41 57 77 79 66 71 94 104 109 122 151 163 157 148 152 145 154 166 220 195 185 168 6 12 26 349 209 195 207 209 210 211 212 213 217 219 212 203 204 205 201 205
109 113 108 101 102 105 105 99 88 86 86 77 69 68 61 50 50 80 79 79 94 72 53 69 94 95 74 53 54 49 53 71 97 102 103 106 119 148 172 165 177 170 184 158 105 35 51 48 50 139 201 198 201 207 217 225 230 220 213 212 213 212 210
102 112 119 122 98 82 83 95 103 101 96 97 82 73 71 81 85 81 78 92 96 118 100 69 43 56 70 54 53 45 41 50 68 82 79 77 91 86 101 87 85 198 198 171 164 135 107 119 97 36 28 87 109 163 202 217 224 226 225 228 225 223 223
85 77 67 64 73 77 82 82 91 99 110 108 95 82 68 53 65 68 76 66 54 68 83 93 87 70 37 0 15 17 31 42 66 66 65 67 64 67 64 54 32 310 265 283 224 139 136 139 136 156 161 160 154 166 184 132 332 208 211 215 221 228 228
94 91 82 72 62 48 53 83 86 79 81 87 96 105 91 59 43 73 79 76 76 66 72 71 72 65 58 23 351 27 35 43 54 51 53 68 67 63 57 52 41 29 8 4 325 335 155 165 160 170 175 183 182 163 159 161 186 150 175 192 202 213 204
103 93 85 77 70 53 58 70 86 75 63 71 87 81 82 93 88 73 75 65 70 59 51 54 66 76 79 74 38 37 44 43 41 40 31 33 54 56 52 41 29 13 337 346 337 330 314 281 234 189 181 185 179 168 165 217 216 163 168 171 189 182 185
114 105 90 61 56 55 63 78 67 64 70 68 75 73 66 62 59 57 55 56 61 65 61 59 56 49 33 14 3 27 48 50 43 46 35 21 30 34 23 25 4 349 334 341 327 317 307 308 297 295 268 204 177 175 189 204 272 326 110 127 139 145 172
102 95 83 66 49 51 50 49 55 53 64 68 59 65 68 61 61 62 56 53 55 57 46 41 40 38 33 17 7 355 7 59 57 37 54 41 30 25 15 7 354 341 339 333 330 333 349 343 359 0 2 359 352 346 131 194 277 262 342 41 238 234 180
94 86 72 68 68 60 46 41 55 59 57 56 56 43 62 64 60 58 55 52 53 54 43 27 19 20 19 5 358 6 8 7 25 15 42 42 53 22 12 352 334 321 335 350 352 350 12 23 22 16 344 315 359 313 339 141 150 183 216 206 216 215 213
93 82 75 73 66 69 60 50 54 52 50 49 37 32 41 53 61 60 55 47 53 53 40 18 5 354 357 358 4 18 25 28 27 11 357 339 326 305 240 239 267 289 319 330 341 24 10 1 79 35 2 335 332 283 300 329 303 169 180 200 216 220 232
104 97 91 81 73 66 60 53 61 61 56 41 36 37 39 50 57 48 41 37 35 25 14 9 2 358 356 356 2 5 9 14 25 14 4 351 324 302 302 294 274 268 276 288 304 20 25 8 4 66 197 251 264 291 316 315 290 270 194 230 242 249 230
89 77 75 76 71 67 64 68 63 61 52 40 41 39 44 56 60 50 39 33 17 355 350 359 355 359 5 9 7 2 359 356 352 359 354 344 351 347 329 319 309 292 291 287 285 281 156 233 285 309 303 294 302 300 306 306 296 294 311 263 253 261 248
96 93 82 69 59 57 76 75 69 61 57 44 43 39 41 59 61 48 41 32 358 341 352 357 7 7 11 14 9 1 356 352 350 349 350 346 347 350 340 333 337 326 314 295 291 288 284 234 229 213 217 247 266 288 297 321 328 316 304 286 264 259 259
92 90 82 77 74 75 79 82 76 69 55 47 41 43 44 56 61 48 40 13 341 1 3 7 9 14 14 9 3 357 352 346 340 339 340 341 341 344 345 342 339 338 339 325 309 299 290 272 262 252 243 243 197 239 58 12 309 312 306 294 264 249 245
106 101 96 86 79 78 80 87 86 77 60 46 43 37 42 49 56 44 29 347 358 7 13 9 15 17 9 3 355 351 343 338 338 337 338 338 344 344 351 352 357 6 1 1 358 339 314 311 295 280 303 42 8 354 14 326 320 314 301 289 282 256 240
100 102 94 87 79 79 85 80 77 76 71 45 36 33 28 33 49 47 9 360 17 11 15 29 26 18 4 355 349 343 340 343 344 356 359 0 1 5 7 4 8 13 5 9 11 17 13 5 13 17 7 14 359 346 323 319 317 310 305 297 279 259 239
116 114 111 101 98 88 76 78 72 70 72 62 29 38 35 33 31 36 29 28 22 27 29 40 30 22 5 350 343 341 342 348 347 5 2 6 2 7 11 4 25 10 4 359 356 357 358 355 351 345 347 336 329 323 320 317 311 300 302 303 297 286 278
116 100 99 106 100 92 84 88 95 77 75 70 47 47 40 32 16 11 20 18 18 20 27 26 16 26 355 340 341 343 339 348 352 357 349 358 1 357 353 7 18 10 358 345 342 342 338 337 332 325 317 324 323 321 315 311 309 303 304 302 290 281 288
116 117 114 103 104 109 120 116 104 96 94 84 57 51 35 16 6 1 3 358 357 12 17 10 14 18 12 359 356 350 344 349 343 341 340 334 340 334 304 320 353 338 320 285 293 322 324 319 308 300 303 313 300 304 305 302 303 294 298 296 292 288 298
116 119 120 132 130 135 147 145 126 110 102 74 68 59 43 17 353 345 342 346 342 356 14 9 21 21 3 359 1 343 341 340 335 328 329 329 325 328 320 318 111 260 311 317 322 324 323 183 260 288 309 300 271 250 274 289 283 294 302 295 292 292 291
127 122 135 132 109 141 94 87 110 104 87 79 76 55 35 6 343 327 324 339 339 2 14 15 14 9 355 349 341 328 322 318 311 308 309 309 312 311 312 312 321 331 308 284 310 323 324 325 313 302 272 212 269 289 265 257 269 283 291 300 301 298 295
144 145 150 155 142 116 97 103 100 109 120 119 90 43 2 325 320 323 326 339 6 13 24 19 16 6 350 338 327 322 319 307 307 309 312 314 316 316 314 315 316 324 335 334 331 326 324 322 321 320 321 320 314 310 306 310 310 308 306 304 306 303 305